SCP
1 1 1 1 0 0 0 0 0 0 0 0 0 0 0 0 0 0 0 0 0 0 0 0 0 0 0 0 0 0 0 0 0 0 1 0 0 0
1 1 1 1 0 0 0 0 0 0 0 0 0 0 0 0 0 0 0 0 0 0 0 0 0 0 0 0 0 0 0 0 0 0 0 0 0 1
1 1 1 1 0 0 0 0 0 0 0 0 0 0 0 0 0 0 0 0 0 0 0 0 0 0 0 0 0 0 0 0 0 0 0 0 0 0
1 1 1 1 1 0 0 0 0 0 0 0 0 0 0 0 0 0 0 0 0 0 0 0 0 0 0 0 0 0 0 0 0 0 0 0 0 0
1 1 1 1 1 1 0 0 0 0 0 0 0 0 0 0 0 0 0 0 0 0 0 0 0 0 0 0 0 0 0 0 0 0 0 0 0 0
1 1 1 1 1 1 1 0 0 0 0 0 0 0 0 0 0 0 0 0 0 0 0 0 0 0 0 0 0 0 0 0 0 0 0 0 0 0
1 1 1 1 1 1 1 0 0 0 0 0 0 0 0 0 0 0 0 0 0 0 0 0 0 0 0 0 0 0 0 0 0 0 0 0 0 0
1 1 1 1 1 1 1 0 0 0 0 0 0 0 0 0 0 0 0 0 0 0 0 0 0 0 0 0 0 0 0 0 0 0 0 0 0 0
1 1 1 0 0 0 0 0 0 0 0 0 0 0 0 0 0 0 0 0 0 0 0 0 0 0 0 0 0 0 0 0 0 0 0 0 0 0
0 0 0 0 0 0 0 0 0 0 0 0 0 0 0 0 0 0 0 0 0 0 0 0 0 0 0 0 0 0 0 0 0 0 0 0 0 0
0 0 0 0 0 0 0 0 0 0 0 0 0 0 0 0 0 0 0 0 0 0 0 0 0 0 0 0 0 0 0 0 0 0 0 0 0 0
0 0 0 0 0 0 0 0 0 0 0 0 0 0 0 0 0 0 0 0 0 0 0 0 0 0 0 0 0 0 0 0 0 0 0 0 0 0
0 0 0 0 0 0 0 0 0 0 0 0 0 0 0 0 0 0 0 0 0 0 0 0 0 0 0 0 0 0 0 0 0 0 0 0 0 0
0 0 0 0 0 0 0 0 0 0 0 0 0 0 0 0 0 0 0 0 0 0 0 0 0 0 0 0 0 0 0 0 0 0 0 0 0 0
0 0 0 0 0 0 0 0 0 0 0 0 0 0 0 0 0 0 0 0 0 0 0 0 0 0 0 0 0 0 0 0 0 0 0 0 0 0
0 0 0 0 0 0 0 0 0 0 0 0 0 0 0 0 0 0 0 0 0 0 0 0 0 0 0 0 0 0 0 0 0 0 0 0 0 0
0 0 0 0 0 0 0 0 0 0 0 0 0 0 0 0 0 0 0 0 0 0 0 0 0 0 0 0 0 0 0 0 0 0 0 0 0 0
0 0 0 0 0 0 0 0 0 0 0 0 0 0 0 0 0 0 0 0 0 0 0 0 0 0 0 0 0 0 0 0 0 0 0 0 0 0
0 0 0 0 0 0 0 0 0 0 0 0 0 0 0 0 0 0 0 0 0 0 0 0 0 0 0 0 0 0 0 0 0 0 0 0 0 0
0 0 0 0 0 0 0 0 0 0 0 0 0 0 0 0 0 0 0 0 0 0 0 0 0 0 0 0 0 0 0 0 0 0 0 0 0 0
0 0 0 0 0 0 0 0 0 0 0 0 0 0 0 0 0 0 0 0 0 0 0 0 0 0 0 0 0 0 0 0 0 0 0 0 0 0
0 0 0 0 0 0 -0 0 0 0 0 0 0 0 0 0 0 0 0 0 0 0 0 0 0 0 0 0 0 0 0 0 0 0 0 0 0 0
0 0 0 0 0 0 -0 0 0 0 0 0 0 0 0 0 0 0 0 0 0 0 0 0 0 0 0 0 0 0 0 0 0 0 0 0 0 0
Wind_Speed
5 6 5 4 4 4 3 4 5 4 3 2 2 1 2 2 3 4 3 6 7 7 7 6 6 5 5 4 3 3 3 2 2 1 1 1 1 2
3 4 4 3 4 4 4 4 4 4 3 3 2 1 2 2 4 3 3 6 7 7 7 7 7 6 5 5 5 4 3 3 2 1 1 0 1 1
3 4 4 4 4 3 4 4 4 4 4 2 1 2 2 3 3 3 3 3 4 7 8 8 7 7 5 5 5 4 4 4 3 2 2 2 2 1
3 4 4 4 4 4 4 4 4 4 4 4 3 2 3 4 4 4 3 3 3 6 8 8 8 8 7 7 6 6 5 5 4 4 4 4 3 2
2 3 4 5 4 3 4 4 4 4 3 4 4 2 2 3 4 4 5 4 4 6 8 8 8 9 9 8 7 7 6 6 5 5 5 5 4 4
1 2 3 4 5 5 4 4 4 4 4 5 4 3 3 3 4 5 4 4 4 5 6 7 9 9 9 9 8 7 7 6 6 5 5 5 6 6
2 1 2 3 5 4 4 4 5 5 5 4 4 3 4 4 5 4 5 5 4 3 5 5 5 5 5 7 8 8 8 8 7 7 7 6 7 7
2 2 1 2 4 5 5 6 6 7 6 5 4 5 5 4 4 5 6 5 3 2 4 4 4 5 4 4 6 8 8 8 8 8 8 7 8 8
2 2 2 2 3 3 5 5 4 6 6 5 6 5 5 6 7 7 5 4 4 4 4 4 3 4 4 5 9 9 8 8 8 8 9 9 8 8
3 3 3 2 2 4 5 5 4 4 3 3 4 4 4 5 6 6 7 7 6 3 3 4 2 3 3 4 8 10 9 9 9 9 9 9 8 8
4 4 3 2 5 8 7 7 6 5 5 7 7 6 8 9 9 8 7 8 5 2 2 3 3 2 2 3 5 9 8 8 7 8 8 8 7 7
4 4 5 4 5 7 6 6 6 4 5 6 7 8 7 8 8 6 7 7 5 3 2 3 3 3 3 1 2 3 4 6 7 7 6 6 6 4
3 3 3 5 6 7 6 5 6 6 5 6 5 5 5 5 4 4 3 5 5 3 4 4 4 2 3 2 1 1 1 1 2 3 5 5 5 4
3 2 3 6 7 8 6 8 10 8 5 5 5 4 4 4 4 5 6 6 5 4 6 4 4 4 4 3 2 1 1 1 1 1 2 3 4 4
3 5 7 8 8 6 8 9 7 5 4 5 4 3 2 3 4 4 6 7 9 7 5 2 3 4 3 4 3 3 2 1 1 1 1 1 1 1
3 5 8 10 7 7 6 5 4 4 4 4 4 3 2 3 3 3 3 4 4 4 6 6 3 5 3 3 3 3 2 2 2 1 1 0 0 1
2 3 3 3 3 3 3 3 3 3 4 3 3 3 3 3 3 2 3 3 3 2 2 3 5 5 4 4 3 3 2 2 2 2 1 1 2 2
3 2 2 2 2 2 2 2 2 2 2 3 3 3 3 3 3 2 2 3 3 3 2 1 2 2 3 3 2 3 3 2 2 2 1 1 2 2
2 1 1 1 1 1 2 2 1 1 2 3 3 3 3 3 3 3 3 3 3 3 2 2 1 3 2 1 1 1 3 3 2 2 2 2 3 3
1 2 2 2 2 2 2 2 2 2 2 2 3 3 3 3 3 3 3 3 3 3 2 1 1 2 3 3 2 1 2 3 3 3 2 1 3 4
2 2 2 2 2 2 2 2 3 3 3 3 3 3 3 3 3 3 3 5 4 3 3 2 2 3 3 3 1 1 2 3 4 4 3 2 1 2
3 3 3 3 3 3 3 3 3 3 3 3 3 3 3 3 4 5 5 4 3 3 3 2 2 2 2 2 2 2 1 1 2 5 7 6 4 3
5 5 4 4 4 4 4 4 5 4 4 4 3 4 4 3 3 4 4 4 3 3 3 3 2 2 2 2 2 2 2 2 1 1 3 8 13 12
Wind_Direction
204 200 200 195 188 186 170 163 158 171 200 199 190 179 166 158 167 171 173 180 175 169 161 155 152 156 163 159 149 137 127 129 142 158 191 242 277 288
197 194 196 191 186 182 178 179 170 161 178 183 183 159 153 143 145 149 160 163 167 163 157 150 148 147 148 141 131 122 116 107 103 129 168 263 287 295
191 188 193 181 175 179 172 173 172 157 160 160 142 140 144 141 130 126 130 137 145 153 154 152 148 144 143 140 136 123 111 102 94 92 89 75 63 37
188 180 183 173 172 174 175 177 174 164 154 156 155 150 149 152 138 132 123 124 121 132 136 140 137 133 128 125 122 119 115 106 93 84 82 80 71 57
183 180 177 166 168 167 167 169 170 167 149 145 150 140 126 138 131 121 115 105 110 116 119 124 125 124 121 119 117 115 111 106 98 87 79 78 72 68
140 157 159 166 170 167 168 171 162 152 146 144 145 143 138 141 142 138 126 108 102 101 95 99 105 105 110 113 114 115 113 110 105 98 88 83 74 67
75 93 138 166 171 170 168 168 160 154 151 151 149 147 152 155 155 142 132 118 90 94 99 87 88 86 89 98 104 109 108 104 102 101 96 87 81 74
73 65 98 138 153 157 161 160 160 161 161 159 160 160 161 152 143 140 138 135 121 109 101 83 78 81 69 76 94 102 103 104 101 101 99 93 89 86
72 71 78 88 107 115 111 116 128 143 155 158 159 164 160 160 151 148 143 125 119 133 110 88 71 78 61 68 85 92 99 102 101 99 99 95 93 90
49 60 73 75 107 120 112 99 87 90 120 133 148 155 155 153 152 143 132 110 98 94 98 106 93 80 65 54 71 81 85 92 96 97 98 96 93 90
34 39 57 83 110 116 113 108 97 80 79 97 106 114 128 137 138 130 132 133 126 111 82 110 123 102 73 49 50 64 73 81 88 95 98 94 93 87
30 29 45 75 104 114 116 119 114 104 100 92 85 88 101 119 127 141 147 144 133 134 143 117 133 132 116 71 43 40 53 63 74 80 89 96 97 93
36 23 27 67 90 100 104 112 124 119 104 100 96 90 88 89 87 87 106 137 137 137 155 132 136 135 126 133 109 44 46 53 57 59 70 86 105 110
46 24 38 71 88 92 95 109 113 107 102 100 96 92 92 89 83 80 80 72 69 111 140 135 135 150 136 135 153 139 64 55 79 81 65 65 74 77
48 59 67 73 79 82 94 102 102 101 105 105 102 89 79 92 94 87 77 78 72 66 62 66 125 135 131 141 148 151 158 172 133 120 98 84 83 75
42 54 65 68 67 69 75 73 74 94 107 109 107 93 82 90 92 95 101 95 84 57 36 43 89 124 119 117 138 153 163 168 168 167 145 174 209 202
57 46 45 49 57 55 58 61 68 83 92 98 109 108 103 100 92 90 99 91 97 105 63 37 53 68 81 120 130 148 153 157 167 159 153 232 261 238
85 74 68 73 90 97 100 82 72 92 103 112 116 121 127 125 113 91 86 106 116 119 119 119 105 81 69 46 80 152 155 159 159 159 163 198 267 259
98 115 128 140 142 137 135 132 133 126 123 130 133 136 133 129 124 123 116 111 114 121 129 134 122 116 123 197 304 153 164 160 152 168 196 206 238 262
158 185 191 188 180 171 165 157 148 138 132 140 144 147 148 143 142 148 149 145 142 140 144 151 167 163 171 187 197 203 182 169 170 186 200 221 261 278
217 213 206 197 193 185 179 172 167 164 161 156 161 163 161 153 156 162 161 160 152 158 174 195 198 150 123 108 108 264 246 215 196 187 178 189 262 295
217 217 215 207 198 191 184 176 172 172 172 174 176 174 171 169 170 171 172 172 179 176 173 154 135 127 138 166 194 224 253 261 246 227 215 198 190 213
216 212 212 207 201 191 185 186 186 188 186 184 182 180 174 177 178 174 178 177 167 164 157 157 158 164 176 184 194 209 223 228 232 250 253 235 233 244